TimeCDT,TemperatureF,Dew PointF,Humidity,Sea Level PressureIn,VisibilityMPH,Wind Direction,Wind SpeedMPH,Gust SpeedMPH,PrecipitationIn,Events,Conditions,WindDirDegrees,DateUTC
12:15 AM,76.5,75.2,96,29.95,4.0,Calm,Calm,-,N/A,Rain,Rain,0,2013-09-20 05:15:00
12:35 AM,76.6,75.2,95,29.94,7.0,Calm,Calm,-,N/A,Rain,Light Rain,0,2013-09-20 05:35:00
12:55 AM,76.5,75.2,96,29.95,7.0,Calm,Calm,-,N/A,Rain,Light Rain,0,2013-09-20 05:55:00
1:15 AM,76.5,75.2,96,29.95,5.0,NW,6.9,-,N/A,Rain,Heavy Rain,310,2013-09-20 06:15:00
1:35 AM,76.5,75.2,96,29.95,5.0,NW,4.6,-,N/A,Rain,Light Rain,320,2013-09-20 06:35:00
1:55 AM,76.5,75.2,96,29.94,10.0,Calm,Calm,-,N/A,,Drizzle,0,2013-09-20 06:55:00
2:15 AM,76.5,75.2,96,29.94,7.0,East,3.5,-,N/A,Rain,Light Rain,80,2013-09-20 07:15:00
2:35 AM,76.3,75.2,96,29.93,5.0,East,4.6,-,N/A,,Drizzle,100,2013-09-20 07:35:00
2:55 AM,76.3,75.2,96,29.94,5.0,East,3.5,-,N/A,Rain,Rain,100,2013-09-20 07:55:00
3:15 AM,76.5,75.2,96,29.93,5.0,East,3.5,-,N/A,Rain,Light Rain,80,2013-09-20 08:15:00
3:35 AM,76.5,75.2,96,29.92,5.0,ENE,4.6,-,N/A,,Drizzle,70,2013-09-20 08:35:00
3:55 AM,76.5,75.2,96,29.92,10.0,ENE,4.6,-,N/A,,Overcast,70,2013-09-20 08:55:00
4:15 AM,76.5,75.2,96,29.92,7.0,Calm,Calm,-,N/A,,Overcast,0,2013-09-20 09:15:00
4:35 AM,76.5,75.2,96,29.92,7.0,Calm,Calm,-,N/A,,Light Drizzle,0,2013-09-20 09:35:00
4:55 AM,76.5,75.2,96,29.92,5.0,North,5.8,-,N/A,Rain,Rain,360,2013-09-20 09:55:00
5:15 AM,76.3,74.8,95,29.92,7.0,North,4.6,-,N/A,,Drizzle,10,2013-09-20 10:15:00
5:35 AM,76.1,74.7,95,29.91,7.0,NNE,4.6,-,N/A,,Light Drizzle,30,2013-09-20 10:35:00
5:55 AM,75.9,74.5,95,29.90,10.0,NNE,3.5,-,N/A,,Drizzle,30,2013-09-20 10:55:00
6:15 AM,75.7,74.5,96,29.91,10.0,NNE,4.6,-,N/A,Rain,Light Rain,30,2013-09-20 11:15:00
6:35 AM,75.6,74.3,96,29.92,10.0,NNE,3.5,-,N/A,Rain,Light Rain,30,2013-09-20 11:35:00
6:55 AM,75.6,74.3,96,29.91,10.0,NNE,4.6,-,N/A,Rain,Light Rain,30,2013-09-20 11:55:00
7:15 AM,75.6,74.3,96,29.91,10.0,NNE,5.8,-,N/A,,Drizzle,20,2013-09-20 12:15:00
7:35 AM,75.6,74.3,96,29.91,7.0,ENE,5.8,-,N/A,Rain,Light Rain,60,2013-09-20 12:35:00
7:55 AM,75.4,73.9,95,29.92,7.0,NE,6.9,-,N/A,Rain,Light Rain,50,2013-09-20 12:55:00
8:15 AM,75.4,73.4,94,29.92,10.0,NE,6.9,-,N/A,Rain,Rain,40,2013-09-20 13:15:00
8:35 AM,75.4,73.6,94,29.92,10.0,NE,8.1,-,N/A,Rain,Light Rain,40,2013-09-20 13:35:00
8:55 AM,75.2,73.0,93,29.91,10.0,NE,8.1,-,N/A,Rain,Light Rain,40,2013-09-20 13:55:00
9:15 AM,74.5,72.0,92,29.91,10.0,NE,8.1,-,N/A,Rain,Light Rain,40,2013-09-20 14:15:00
9:35 AM,73.9,71.4,92,29.90,10.0,NE,9.2,-,N/A,Rain,Light Rain,40,2013-09-20 14:35:00
9:55 AM,74.1,71.6,92,29.92,10.0,NE,3.5,-,N/A,,Light Drizzle,40,2013-09-20 14:55:00
10:15 AM,74.3,72.1,93,29.92,10.0,NE,9.2,-,N/A,Rain,Light Rain,50,2013-09-20 15:15:00
10:35 AM,74.5,72.3,93,29.93,10.0,East,4.6,-,N/A,Rain,Light Rain,80,2013-09-20 15:35:00
10:55 AM,74.8,72.5,92,29.92,10.0,ENE,6.9,-,N/A,Rain,Light Rain,70,2013-09-20 15:55:00
11:15 AM,75.2,72.5,91,29.93,10.0,ENE,4.6,-,N/A,Rain,Rain,70,2013-09-20 16:15:00
11:35 AM,76.1,72.5,89,29.93,10.0,East,5.8,-,N/A,Rain,Light Rain,80,2013-09-20 16:35:00
11:55 AM,76.1,72.1,87,29.92,10.0,ENE,6.9,-,N/A,,Light Drizzle,60,2013-09-20 16:55:00
12:15 PM,76.1,71.6,86,29.92,10.0,NE,5.8,-,N/A,,Overcast,50,2013-09-20 17:15:00
12:35 PM,75.6,71.2,86,29.92,10.0,NE,3.5,-,N/A,,Overcast,40,2013-09-20 17:35:00
12:55 PM,76.1,71.4,85,29.91,10.0,NNE,4.6,-,N/A,Rain,Rain,30,2013-09-20 17:55:00
1:15 PM,76.1,71.4,85,29.90,10.0,North,6.9,-,N/A,,Mostly Cloudy,10,2013-09-20 18:15:00
1:35 PM,76.1,72.1,87,29.89,10.0,NNE,3.5,-,N/A,,Scattered Clouds,20,2013-09-20 18:35:00
1:55 PM,76.6,72.3,86,29.89,10.0,North,6.9,-,N/A,Rain,Light Rain,10,2013-09-20 18:55:00
2:15 PM,77.2,72.7,86,29.88,10.0,NE,4.6,-,N/A,Rain,Light Rain,50,2013-09-20 19:15:00
2:35 PM,77.9,72.3,83,29.88,10.0,NE,5.8,-,N/A,,Mostly Cloudy,40,2013-09-20 19:35:00
2:55 PM,78.1,72.5,83,29.87,10.0,NE,5.8,-,N/A,,Mostly Cloudy,40,2013-09-20 19:55:00
3:15 PM,78.8,72.0,79,29.87,10.0,NE,6.9,-,N/A,,Mostly Cloudy,50,2013-09-20 20:15:00
3:35 PM,79.3,71.4,77,29.87,10.0,NNE,8.1,-,N/A,,Overcast,30,2013-09-20 20:35:00
3:55 PM,78.8,70.7,76,29.87,10.0,NNE,5.8,-,N/A,,Overcast,30,2013-09-20 20:55:00
4:15 PM,79.0,70.7,76,29.87,10.0,NNE,6.9,-,N/A,,Overcast,30,2013-09-20 21:15:00
4:35 PM,78.3,71.1,78,29.87,10.0,NE,3.5,-,N/A,,Overcast,40,2013-09-20 21:35:00
4:55 PM,78.8,71.2,78,29.87,10.0,NNE,5.8,-,N/A,,Overcast,20,2013-09-20 21:55:00
5:15 PM,79.0,70.9,76,29.87,10.0,Calm,Calm,-,N/A,,Mostly Cloudy,0,2013-09-20 22:15:00
5:35 PM,78.8,70.9,77,29.87,10.0,NNE,3.5,-,N/A,,Overcast,20,2013-09-20 22:35:00
5:55 PM,78.4,70.7,77,29.87,10.0,NNE,3.5,-,N/A,,Overcast,30,2013-09-20 22:55:00
6:15 PM,78.8,70.7,76,29.88,10.0,NNE,3.5,-,N/A,,Overcast,20,2013-09-20 23:15:00
6:35 PM,78.8,70.9,77,29.88,10.0,North,3.5,-,N/A,,Overcast,360,2013-09-20 23:35:00
6:55 PM,78.4,71.4,79,29.89,10.0,Calm,Calm,-,N/A,,Overcast,0,2013-09-20 23:55:00
7:15 PM,78.1,71.2,79,29.88,10.0,Calm,Calm,-,N/A,,Overcast,0,2013-09-21 00:15:00
7:35 PM,77.9,71.4,80,29.89,10.0,North,10.4,16.1,N/A,,Overcast,360,2013-09-21 00:35:00
7:55 PM,76.1,71.6,86,29.89,10.0,North,8.1,-,N/A,,Overcast,350,2013-09-21 00:55:00
8:15 PM,75.7,71.4,86,29.89,10.0,North,9.2,-,N/A,,Overcast,360,2013-09-21 01:15:00
8:35 PM,75.6,70.9,85,29.89,10.0,North,10.4,17.3,N/A,,Overcast,360,2013-09-21 01:35:00
8:55 PM,74.3,71.6,91,29.90,7.0,North,9.2,-,N/A,,Overcast,350,2013-09-21 01:55:00
9:15 PM,74.5,72.1,92,29.90,10.0,North,6.9,-,N/A,,Overcast,350,2013-09-21 02:15:00
9:35 PM,74.5,70.9,88,29.90,10.0,North,6.9,-,N/A,,Mostly Cloudy,360,2013-09-21 02:35:00
9:55 PM,74.1,70.0,87,29.90,10.0,NNE,6.9,-,N/A,,Mostly Cloudy,30,2013-09-21 02:55:00
10:15 PM,73.6,68.0,83,29.91,10.0,North,6.9,-,N/A,,Scattered Clouds,10,2013-09-21 03:15:00
10:35 PM,72.9,65.8,79,29.91,10.0,North,6.9,-,N/A,,Clear,10,2013-09-21 03:35:00
10:55 PM,72.1,64.4,77,29.92,10.0,North,6.9,-,N/A,,Clear,10,2013-09-21 03:55:00
11:15 PM,71.6,63.3,75,29.93,10.0,North,8.1,-,N/A,,Clear,360,2013-09-21 04:15:00
11:35 PM,71.1,62.1,73,29.93,10.0,North,6.9,-,N/A,,Scattered Clouds,360,2013-09-21 04:35:00
11:55 PM,70.2,61.5,74,29.93,10.0,North,6.9,-,N/A,,Scattered Clouds,360,2013-09-21 04:55:00